• Join FlightAware (Why Join?)
  • Login
  • US Flag 
06:55PM EST


 

Airport Tracker/Info


-or-


 

Live Flight TrackerFlight Track Log ✈ FFT346 ✈ 25-Apr-2013 ✈ KLAS - KDEN

Flight Track Log - Related Links

Times and Time Zones

All times are in EDT time to prevent confusion due to time zone crossing. See the FFT346 flight status page for this flight to view local times or setup timezone preferences in your user account.

Time Position Orientation Groundspeed Altitude Reporting Facility
EDT Latitude Longitude Course Direction KTS MPH feet Rate Location/Type
09:47AM 36.0747 -115.1714 273° West 141 162 3,100  Level Los Angeles Center
09:47AM 36.0756 -115.1950 273° West 164 189 3,800 1,605 Climbing Los Angeles Center
09:48AM 36.0758 -115.2667 270° West 214 246 5,400 1,582 Climbing Los Angeles Center
09:49AM 36.0947 -115.2847 322° Northwest 229 264 6,200 2,750 Climbing Los Angeles Center
09:49AM 36.1514 -115.2872 358° North 253 291 8,700 3,344 Climbing Los Angeles Center
09:50AM 36.1672 -115.2644 49° Northeast 256 295 9,600 2,291 Climbing Los Angeles Center
09:50AM 36.1861 -115.2172 64° Northeast 274 315 10,800 1,548 Climbing Los Angeles Center
09:51AM 36.1964 -115.1778 72° East 279 321 11,200 1,869 Climbing Los Angeles Center
09:51AM 36.1947 -115.1078 92° East 334 384 12,700 2,516 Climbing Los Angeles Center
09:52AM 36.1958 -115.0622 88° East 332 382 13,800 2,597 Climbing Los Angeles Center
09:53AM 36.1989 -114.9783 87° East 346 398 15,600 2,459 Climbing Los Angeles Center
09:53AM 36.1978 -114.9433 92° East 343 395 16,300 2,241 Climbing Los Angeles Center
09:54AM 36.1989 -114.8178 89° East 362 417 18,700 2,244 Climbing Los Angeles Center
09:55AM 36.1986 -114.6875 90° East 375 432 20,900 2,000 Climbing Los Angeles Center
09:56AM 36.1967 -114.5275 91° East 387 445 23,200 1,809 Climbing Los Angeles Center
09:57AM 36.1947 -114.3894 91° East 399 459 25,000 1,707 Climbing Los Angeles Center
09:58AM 36.1939 -114.2169 90° East 413 475 26,700 1,610 Climbing Los Angeles Center
09:59AM 36.2142 -114.0669 80° East 435 501 28,300 1,403 Climbing Los Angeles Center
10:00AM 36.2317 -113.9158 82° East 442 509 29,600 1,171 Climbing Los Angeles Center
10:01AM 36.2506 -113.7617 81° East 449 517 30,700 1,415 Climbing Los Angeles Center
10:02AM 36.2683 -113.6028 82° East 461 531 32,500 1,452 Climbing Los Angeles Center
10:03AM 36.2853 -113.4478 82° East 458 527 33,700 976 Climbing Los Angeles Center
10:04AM 36.3044 -113.2914 81° East 458 527 34,500 1,024 Climbing Los Angeles Center
10:05AM 36.3478 -113.1289 72° East 467 537 35,800 1,113 Climbing Los Angeles Center
10:06AM 36.4014 -112.9828 65° Northeast 468 539 36,800 585 Climbing Los Angeles Center
10:07AM 36.4558 -112.8353 65° Northeast 470 541 37,000 98 Climbing Los Angeles Center
10:08AM 36.5222 -112.6567 65° Northeast 475 547 37,000 -48 Level Los Angeles Center
10:10AM 36.5758 -112.5097 66° East 472 543 36,900  Descending Los Angeles Center
10:11AM 36.6289 -112.3633 66° East 468 539 37,000 49 Climbing Los Angeles Center
10:12AM 36.6831 -112.2158 65° Northeast 470 541 37,000  Level Los Angeles Center
10:13AM 36.7358 -112.0675 66° East 471 542 37,000  Level Los Angeles Center
10:13AM 36.7883 -111.9194 66° East 471 542 37,000  Level Denver Center
10:14AM 36.8428 -111.7703 65° Northeast 472 543 37,000  Level Denver Center
10:16AM 36.8969 -111.6211 66° East 473 544 37,000  Level Denver Center
10:17AM 36.9492 -111.4722 66° East 473 544 37,000  Level Denver Center
10:18AM 37.0000 -111.3247 67° East 468 539 37,000  Level Denver Center
10:19AM 37.0539 -111.1744 66° East 474 545 37,000  Level Denver Center
10:20AM 37.1156 -110.9933 67° East 475 547 37,000  Level Denver Center
10:21AM 37.1683 -110.8433 66° East 474 545 37,000  Level Denver Center
10:22AM 37.2211 -110.6919 66° East 475 547 37,000  Level Denver Center
10:23AM 37.2731 -110.5383 67° East 479 551 37,000  Level Denver Center
10:24AM 37.3264 -110.3844 66° East 482 555 37,000  Level Denver Center
10:25AM 37.3678 -110.2608 67° East 483 556 37,000  Level Denver Center
10:26AM 37.4364 -110.0589 67° East 481 554 37,000  Level Denver Center
10:27AM 37.4872 -109.9089 67° East 484 557 37,000  Level Denver Center
10:28AM 37.5450 -109.7347 67° East 482 555 37,000  Level Denver Center
10:29AM 37.5944 -109.5844 67° East 483 556 37,000  Level Denver Center
10:30AM 37.6517 -109.4103 67° East 481 554 37,000  Level Denver Center
10:31AM 37.7025 -109.2611 67° East 483 556 37,000  Level Denver Center
10:32AM 37.7794 -109.0947 60° Northeast 488 562 37,000  Level Denver Center
10:33AM 37.8444 -108.9519 60° Northeast 489 563 37,000  Level Denver Center
10:34AM 37.9311 -108.7625 60° Northeast 487 560 37,000  Level Denver Center
10:35AM 37.9947 -108.6194 61° Northeast 488 562 37,000  Level Denver Center
10:36AM 38.0661 -108.4619 60° Northeast 489 563 37,000  Level Denver Center
10:37AM 38.1408 -108.2953 60° Northeast 487 560 37,000  Level Denver Center
10:38AM 38.2039 -108.1536 60° Northeast 485 558 37,000  Level Denver Center
10:39AM 38.2786 -107.9856 60° Northeast 488 562 37,000  Level Denver Center
10:40AM 38.3422 -107.8422 60° Northeast 489 563 37,000 -48 Level Denver Center
10:41AM 38.4175 -107.6719 61° Northeast 494 568 36,900 -290 Descending Denver Center
10:43AM 38.4822 -107.5247 61° Northeast 496 571 36,400 -532 Descending Denver Center
10:44AM 38.5475 -107.3803 60° Northeast 494 568 35,800 -581 Descending Denver Center
10:45AM 38.6233 -107.2094 60° Northeast 494 568 35,200 -576 Descending Denver Center
10:46AM 38.6908 -107.0614 60° Northeast 497 572 34,600 -576 Descending Denver Center
10:47AM 38.7578 -106.9061 61° Northeast 499 574 34,000 -581 Descending Denver Center
10:48AM 38.8269 -106.7503 60° Northeast 505 581 33,400 -629 Descending Denver Center
10:49AM 38.9083 -106.5678 60° Northeast 502 578 32,700 -1,597 Descending Denver Center
10:50AM 38.9792 -106.4183 59° Northeast 509 586 30,100 -2,468 Descending Denver Center
10:51AM 39.0575 -106.2447 60° Northeast 503 579 27,600 -2,274 Descending Denver Center
10:52AM 39.1242 -106.0989 59° Northeast 488 562 25,400 -1,887 Descending Denver Center
10:53AM 39.1861 -105.9547 61° Northeast 461 531 23,700 -1,984 Descending Denver Center
10:54AM 39.2483 -105.8150 60° Northeast 449 517 21,300 -2,081 Descending Denver Center
10:55AM 39.3172 -105.6583 60° Northeast 430 495 19,400 -1,742 Descending Denver Center
10:56AM 39.3725 -105.5314 61° Northeast 406 467 17,700 -1,306 Descending Denver Center
10:57AM 39.3981 -105.3983 76° East 389 448 16,700 -1,161 Descending Denver Center
10:58AM 39.4044 -105.2689 86° East 363 418 15,300 -1,344 Descending Denver Center
10:59AM 39.4103 -105.1286 87° East 365 420 13,900 -1,104 Descending Denver Center
11:00AM 39.4158 -105.0064 87° East 347 399 13,000 -677 Descending Denver Center
11:01AM 39.4233 -104.8922 85° East 302 348 12,500 -774 Descending Denver Center
11:02AM 39.4431 -104.7972 75° East 285 328 11,400 -1,016 Descending Denver Center
11:03AM 39.5078 -104.7425 33° Northeast 259 298 10,400 -774 Descending Denver Center
11:04AM 39.5681 -104.6975 30° Northeast 251 289 9,800 -532 Descending Denver Center
11:05AM 39.6331 -104.6631 22° Northeast 239 275 9,300 -871 Descending Denver Center
11:06AM 39.6953 -104.6625 360° North 225 259 8,000 -1,113 Descending Denver Center
11:07AM 39.7592 -104.6614 North 210 242 7,000 -968 Descending Denver Center
11:08AM 39.8014 -104.6606 North 156 180 6,000 -774 Descending Denver Center
11:09AM 39.8386 -104.6611 359° North 138 159 5,400 -581 Descending Denver Center